Tracking 22124 objects as of 25-Jan-2021
HD Live streaming from Space Station
objects crossing your sky now

GEOS 2

Track GEOS 2 now!
GEOS 2 is classified as:


NORAD ID: 10981
Int'l Code: 1978-071A
Perigee: 36,026.5 km
Apogee: 36,067.3 km
Inclination: 10.3 °
Period: 1,449.0 minutes
Semi major axis: 42417 km
RCS: 2.0304 m2 (large)
Launch date: July 14, 1978
Source: European Space Agency (ESA)
Launch site: AIR FORCE EASTERN TEST RANGE (AFETR)
aabbcc
Your satellite tracking list
Your tracking list is empty




NASA's NSSDC Master Catalog

Two Line Element Set (TLE):
1 10981U 78071A   21024.86769090  .00000123  00000-0  00000-0 0  9992
2 10981  10.3044 307.6564 0004814 353.7144 180.4223  0.99375564154422
Source of the keplerian elements: AFSPC